GEFSCGP_500_meanwind_144.txt.gz
Wind_Speed
17 18 18 19 20 20 19 20 21 21 22 22 23 23 24 26 26 27 27 28 29 29 31 33 35 38 40 42 44 47 50 53 55 57 59 60 61 61 61 60 59 58 56 56
16 15 16 16 16 16 16 16 16 17 18 18 18 18 20 21 22 23 24 25 26 27 28 31 32 33 35 37 39 42 46 49 52 55 56 57 59 60 59 58 58 57 56 56
14 13 13 13 13 13 13 13 13 13 14 15 15 16 17 18 19 20 21 22 24 25 27 29 30 31 33 34 36 37 39 43 46 50 53 55 57 58 59 58 58 57 56 56
12 11 10 10 10 10 10 10 10 10 11 12 13 14 14 14 15 17 19 20 21 23 24 26 27 28 29 30 31 33 35 38 41 47 50 51 53 54 55 55 56 55 55 55
9 8 7 6 6 8 7 7 7 8 9 10 11 12 11 12 12 13 16 18 18 19 20 23 23 23 24 25 27 30 32 35 37 40 43 45 48 51 51 52 53 54 54 55
7 6 5 5 6 6 6 6 6 7 8 8 8 9 9 10 11 11 13 14 15 16 16 17 17 18 19 21 23 25 27 29 32 35 39 41 43 46 48 48 48 50 53 53
7 6 5 4 4 5 4 4 4 4 5 5 5 6 8 9 10 10 10 10 11 11 11 12 12 12 13 14 16 18 21 24 27 30 34 37 40 42 44 44 43 45 48 50
7 6 5 4 4 3 3 3 3 3 2 3 4 6 7 8 9 10 10 9 8 9 8 8 8 7 8 10 12 14 17 20 22 25 28 31 34 36 38 39 39 41 43 46
7 6 5 4 4 3 2 1 1 0 1 2 4 6 6 6 8 9 8 8 7 7 7 7 7 6 5 5 7 10 13 15 17 20 23 26 28 30 32 34 35 37 40 42
6 5 4 4 4 3 2 2 2 2 2 3 4 5 5 5 7 7 8 8 7 7 7 6 6 6 3 3 3 5 8 11 14 16 20 23 25 26 28 30 32 34 36 39
6 5 5 5 5 4 3 2 2 2 3 4 5 6 6 6 7 8 8 7 8 8 8 8 7 7 4 2 1 2 6 9 11 13 16 20 22 23 24 25 27 29 33 37
6 5 5 5 4 3 2 2 2 2 3 4 5 6 7 7 7 8 8 8 8 9 9 9 8 8 7 4 1 1 2 4 6 9 11 14 18 20 21 22 24 26 29 33
5 5 4 4 3 3 2 1 2 3 3 4 5 6 6 6 6 7 8 9 8 9 10 10 10 10 9 7 4 1 1 1 3 5 7 10 14 17 19 21 23 25 27 30
4 4 3 2 2 2 2 1 2 2 3 4 4 5 5 6 5 5 7 8 8 8 9 10 11 10 9 9 6 4 2 1 1 3 6 8 12 15 17 20 22 25 26 28
3 3 2 2 1 1 0 1 1 1 2 3 4 4 5 5 5 5 7 8 9 9 9 9 10 9 9 8 6 4 3 1 1 4 6 9 11 13 16 18 20 22 24 27
2 1 1 1 1 1 1 1 2 3 3 3 4 4 4 5 5 5 6 7 8 8 9 9 9 9 8 7 6 4 3 3 4 6 7 9 12 14 15 17 18 20 23 25
2 2 2 3 3 2 3 3 4 4 4 4 5 5 5 5 6 6 7 7 7 8 8 9 8 8 8 7 6 6 6 7 8 9 10 12 14 16 18 19 20 22 24 25
4 4 5 5 5 5 5 5 5 6 6 6 6 6 6 6 7 8 8 9 9 9 9 8 9 8 8 7 8 8 8 8 9 11 13 14 16 17 19 20 21 22 23 25
6 7 7 7 7 7 7 7 7 8 7 7 8 8 8 9 9 10 10 10 11 11 10 10 10 10 10 9 10 10 10 11 12 14 16 17 18 19 20 21 22 23 24 26
8 9 9 10 10 9 9 9 10 10 9 9 10 10 10 11 11 11 12 12 12 12 12 12 12 13 13 13 13 13 13 13 14 16 17 19 20 21 22 22 23 24 26 26
10 10 11 11 12 12 11 11 11 11 11 11 11 12 13 13 14 14 14 13 13 13 13 13 14 15 15 15 16 17 17 17 18 19 20 22 23 23 24 25 26 27 27 28
11 12 12 13 13 13 13 13 13 13 13 14 14 15 15 16 16 16 16 16 15 15 15 16 17 18 18 18 19 19 20 21 22 23 24 25 26 26 26 27 27 28 29 30
13 13 13 14 14 15 15 15 15 15 15 15 16 16 17 17 17 17 18 18 18 18 19 19 19 20 21 21 22 23 23 24 25 26 28 29 29 28 28 28 28 29 30 31
14 15 15 15 15 16 16 16 16 17 16 16 17 18 18 18 18 19 19 20 21 21 21 21 21 22 23 24 25 26 26 27 28 28 29 30 30 30 29 28 29 30 31 32
16 16 16 17 17 18 18 19 19 19 19 19 19 19 20 20 19 20 21 22 22 23 23 24 24 25 26 26 27 28 28 29 30 30 31 31 31 31 30 30 30 31 31 32
18 18 18 18 19 20 20 21 21 22 22 22 23 22 22 23 23 23 23 24 25 25 26 26 26 27 27 28 29 30 30 31 32 32 32 32 31 31 32 32 32 33 33 33

GEFSCGP_500_meanwind_150.txt.gz
Wind_Speed
21 21 21 21 21 22 22 23 24 25 25 26 26 28 29 30 32 32 33 33 33 33 34 35 36 37 38 39 39 40 42 43 44 46 48 50 52 54 56 56 58 59 59 58
18 18 18 17 17 18 19 20 21 22 22 23 24 26 27 28 29 29 30 30 31 32 32 32 34 35 36 37 38 39 40 42 44 45 45 46 48 50 52 54 56 57 58 58
15 15 16 16 15 15 16 17 18 19 20 21 22 24 24 25 26 26 27 28 29 29 30 31 32 34 35 36 36 37 38 39 41 42 44 46 46 47 49 51 52 55 56 56
13 13 14 14 13 13 13 14 15 16 17 18 19 20 20 22 23 24 25 26 28 29 29 30 31 31 33 34 34 35 36 37 39 39 40 43 44 45 46 48 48 51 53 55
11 11 11 12 11 11 11 11 12 13 14 15 16 17 18 19 20 22 23 24 26 27 28 28 29 29 30 30 31 32 34 35 37 38 39 40 41 42 44 45 47 48 51 53
8 8 8 9 9 9 10 10 10 11 12 13 13 14 15 15 16 18 19 21 23 24 25 26 27 27 27 27 27 29 30 30 31 33 35 36 38 39 41 43 44 46 47 49
7 6 6 7 8 8 9 9 9 9 10 10 10 12 12 13 15 16 18 19 20 22 22 23 24 24 24 24 24 25 26 27 28 29 31 32 34 35 37 39 41 43 44 45
5 5 5 5 6 6 7 7 7 7 8 8 9 11 11 12 14 15 16 17 18 18 18 19 19 19 19 20 20 21 21 22 23 24 25 27 28 28 30 33 35 38 40 40
3 3 4 4 4 5 5 5 5 5 7 8 9 10 11 11 12 14 14 15 15 15 15 15 15 14 14 15 16 17 17 18 18 19 20 22 24 25 27 30 32 33 34 35
1 1 3 3 3 3 4 3 4 5 6 8 8 9 10 10 11 12 12 12 12 11 11 11 11 9 10 12 13 14 14 13 13 14 16 18 20 21 23 26 28 30 31 32
1 0 1 3 3 4 4 4 5 6 7 8 9 9 10 11 11 11 10 10 9 7 8 8 7 8 9 10 11 11 11 10 10 11 12 13 14 16 18 21 23 26 28 30
0 1 2 3 3 4 5 5 5 7 8 8 9 9 10 11 11 10 8 7 7 6 6 7 7 8 10 10 10 10 10 10 9 10 10 11 12 14 16 18 20 23 25 27
1 1 2 3 3 4 5 5 6 8 8 8 8 9 9 9 8 8 8 7 6 6 6 6 7 8 9 10 11 11 11 10 9 9 9 10 11 12 14 15 17 19 20 22
2 3 3 4 4 4 5 6 7 8 9 8 8 8 8 8 8 8 8 7 6 7 7 8 7 9 10 11 11 11 11 11 10 10 10 9 9 10 11 12 14 17 20 22
4 4 5 4 5 5 6 6 8 9 8 8 7 8 7 7 7 8 8 7 7 7 8 8 9 10 11 11 12 12 12 12 12 11 10 9 9 9 10 13 15 18 20 23
6 6 5 5 5 6 6 7 8 8 8 8 7 7 7 8 8 8 9 9 8 8 8 10 11 11 12 12 11 12 13 13 13 13 11 10 11 12 13 14 16 18 21 23
6 7 7 6 7 7 8 9 9 9 8 8 8 8 8 8 9 9 10 10 10 10 10 11 11 12 13 13 12 13 13 13 14 13 13 13 13 14 15 16 18 20 22 23
7 8 9 9 9 10 9 10 10 10 9 9 9 9 9 10 10 10 11 11 12 11 11 12 12 13 13 13 13 14 13 14 14 14 14 14 14 16 17 19 20 21 22 23
9 10 10 11 11 11 11 11 11 11 10 11 11 11 11 12 12 12 13 14 14 14 13 13 14 14 14 14 14 15 15 15 16 16 16 16 17 18 20 21 22 22 23 24
11 12 12 13 13 12 12 12 12 12 12 13 13 13 13 13 13 14 15 16 16 16 15 15 16 16 16 16 16 16 17 17 18 18 18 19 20 21 22 22 23 24 24 24
13 14 14 15 15 14 14 14 13 13 13 14 14 14 15 15 16 16 17 17 17 17 17 17 17 17 17 18 18 18 19 19 20 21 22 23 23 23 24 25 25 26 26 26
16 16 17 17 17 16 16 16 15 15 15 15 15 15 16 17 18 18 19 19 19 19 20 20 19 19 20 20 20 21 21 22 23 24 26 26 26 26 26 27 27 27 27 27
18 18 19 18 17 17 17 17 17 17 17 17 17 18 18 18 19 20 21 21 22 22 22 22 22 22 22 23 23 24 24 25 26 27 28 29 29 29 29 29 29 29 29 29
19 20 20 19 18 18 18 18 19 19 20 20 20 20 20 21 21 21 22 22 23 23 24 24 25 25 25 25 26 26 27 28 28 29 30 31 31 32 32 31 30 30 30 30
21 22 22 21 19 20 20 20 20 21 22 23 23 23 23 24 24 24 24 24 24 25 26 27 28 28 28 28 29 29 30 30 31 32 32 33 34 34 33 33 32 31 31 31
21 23 22 21 20 21 20 21 22 22 23 24 24 25 25 25 25 25 26 26 26 27 28 29 29 30 30 31 31 32 33 33 34 34 35 36 36 36 35 35 34 33 33 33

GEFSCGP_500_meanwind_156.txt.gz
Wind_Speed
19 19 21 22 23 24 25 26 27 29 29 29 29 29 30 31 32 32 32 33 33 34 35 35 36 37 37 38 39 40 41 42 43 44 44 44 45 46 47 48 49 50 52 53
17 17 19 20 21 22 23 24 25 27 27 27 27 28 28 28 29 30 31 32 32 32 32 33 34 35 36 36 36 37 39 41 42 43 43 44 45 46 46 47 48 49 51 52
15 15 16 17 19 19 20 21 22 22 23 24 25 26 26 26 27 28 29 29 30 31 31 32 33 34 35 35 36 36 37 39 40 41 42 42 43 44 45 46 47 49 50 51
12 13 14 14 15 17 17 17 18 19 20 21 22 23 23 24 25 25 26 27 28 28 30 30 31 32 32 33 33 34 35 35 37 38 39 41 41 42 43 44 45 46 48 49
10 11 12 12 13 13 14 15 16 17 18 19 19 20 20 20 22 22 24 25 25 26 27 28 28 29 29 29 30 31 32 33 33 35 36 38 39 40 41 42 43 44 45 47
8 9 10 10 11 12 12 13 14 15 16 16 16 17 17 17 18 19 21 21 22 23 24 26 26 27 28 29 30 30 31 31 32 33 34 35 37 39 40 41 42 43 43 43
5 6 8 7 8 9 10 10 11 12 14 14 14 15 14 14 15 16 18 19 19 21 22 23 24 26 26 26 26 27 28 29 30 31 32 33 34 36 37 39 40 40 41 42
4 6 6 6 6 7 8 8 9 11 12 12 13 13 12 13 14 14 15 16 18 18 19 21 22 23 23 24 24 25 26 27 27 28 28 29 30 31 32 35 37 37 38 38
3 4 4 5 5 6 7 7 8 9 10 11 11 11 11 11 11 12 13 14 15 16 17 18 18 18 19 20 21 22 22 23 23 24 25 26 27 29 30 31 33 34 35 35
3 3 2 3 3 4 5 6 7 8 9 10 10 10 10 11 12 13 14 14 15 16 17 16 16 16 16 16 17 18 19 20 21 22 22 22 24 26 28 28 28 29 31 32
1 1 1 2 3 4 5 6 7 8 9 9 9 9 10 10 11 12 13 13 14 14 14 15 14 14 13 14 15 16 17 18 18 19 19 19 21 21 22 24 25 26 27 29
0 1 2 3 4 4 5 6 7 8 8 9 9 8 10 10 11 11 12 12 12 12 12 12 13 12 13 13 14 15 15 15 16 16 17 17 17 17 18 20 22 24 26 27
2 2 3 3 4 4 5 6 7 7 8 8 9 9 10 10 10 10 10 10 10 10 10 10 10 11 11 12 12 12 13 13 14 14 14 14 15 15 16 18 19 20 22 24
3 3 4 4 4 4 5 6 6 6 7 7 8 8 9 10 9 9 9 9 9 9 9 9 9 8 9 10 10 10 11 13 13 13 13 13 14 14 15 16 16 17 18 20
5 5 5 5 4 4 5 6 6 7 8 9 8 9 9 9 8 7 8 7 8 8 8 8 8 8 8 9 9 10 11 12 13 13 13 13 12 13 14 14 15 16 18 19
6 6 6 6 6 6 6 7 7 9 9 9 9 8 8 7 7 7 7 7 7 7 8 8 8 8 9 9 10 10 11 12 13 13 13 13 13 13 14 14 15 16 17 18
8 8 8 7 8 8 8 8 9 9 9 9 8 7 8 8 9 8 8 7 8 8 9 9 9 10 10 11 11 12 13 13 13 13 13 14 14 15 16 16 17 18 19 20
9 8 8 8 8 9 9 9 10 9 9 10 10 9 9 9 9 9 9 9 9 10 11 11 11 12 12 12 12 13 14 15 15 15 15 15 16 17 18 18 19 20 21 21
10 10 10 10 10 10 10 10 10 9 9 10 10 10 10 10 10 11 11 11 11 11 12 12 13 13 13 13 14 15 16 16 17 18 18 19 18 19 20 20 21 22 22 23
12 12 12 12 12 12 11 11 11 10 10 11 11 11 10 11 11 12 12 13 13 13 14 14 14 15 15 16 17 17 18 19 20 20 21 21 21 21 22 23 24 25 25 27
14 14 14 15 15 14 13 13 12 13 13 13 13 13 13 13 13 13 14 15 15 15 15 16 16 17 18 18 19 20 21 22 23 23 23 23 23 24 25 26 26 27 28 28
16 16 16 17 17 17 16 15 14 14 15 15 15 15 15 15 15 15 16 16 17 17 18 18 18 19 20 21 21 22 23 24 25 26 27 27 27 27 27 28 29 29 30 30
18 18 19 19 18 19 18 17 17 17 17 18 18 18 18 17 18 18 18 19 20 20 20 21 21 22 22 23 24 24 25 26 27 28 29 29 30 30 30 31 31 32 32 32
20 20 21 21 20 20 20 19 19 20 20 20 20 20 20 20 20 20 21 22 22 23 23 24 24 25 25 26 26 27 28 29 29 30 31 31 32 32 33 33 33 34 35 35
20 22 22 22 21 21 19 20 20 21 21 22 22 22 22 22 22 22 23 23 24 25 26 26 26 27 28 28 29 30 31 32 32 33 33 33 33 34 34 35 36 37 37 37
22 24 25 24 23 23 21 22 22 22 22 23 24 24 25 25 24 24 25 26 26 27 27 28 28 29 29 30 31 31 32 33 34 34 35 35 36 36 38 38 39 39 38 37

GEFSCGP_500_meanwind_162.txt.gz
Wind_Speed
15 17 19 21 23 24 25 27 29 30 31 32 33 34 33 34 34 34 35 35 36 36 36 37 37 38 38 38 39 39 40 41 41 42 42 42 42 43 44 44 45 45 45 46
14 14 16 18 20 22 23 25 26 28 29 31 32 32 33 33 33 33 33 34 34 35 36 37 37 38 38 38 38 38 39 40 40 40 41 41 42 43 43 44 45 46 46 47
11 12 13 15 17 20 22 22 24 26 27 29 30 31 31 32 32 32 32 33 33 34 35 36 36 36 36 37 37 37 38 38 39 39 40 41 42 43 44 45 46 46 47 47
8 10 12 14 15 17 19 21 23 24 25 26 28 30 29 30 31 32 32 32 33 33 33 34 34 35 34 34 35 35 36 36 37 38 39 40 41 42 44 45 46 47 47 47
6 7 9 12 13 15 17 19 20 22 23 24 25 27 27 29 29 30 31 31 32 32 32 32 32 33 33 32 32 33 33 33 34 36 37 38 39 40 41 42 43 43 44 44
5 6 8 9 10 12 14 16 18 19 20 21 22 24 23 25 27 29 29 30 30 31 31 31 30 30 31 31 32 32 32 32 33 34 35 37 38 39 39 39 41 42 43 43
4 5 6 7 8 9 11 13 15 16 18 19 20 21 21 22 24 26 27 28 29 29 29 28 28 28 29 30 31 31 31 31 32 33 34 35 36 37 38 38 39 40 41 42
3 4 5 6 7 8 10 11 12 14 16 16 17 18 18 19 20 22 23 24 25 25 25 26 26 26 27 28 29 31 31 31 32 33 34 34 34 34 35 34 35 36 38 39
3 4 5 7 7 9 10 10 11 13 14 14 15 16 16 17 19 19 20 21 22 23 23 24 25 25 26 27 29 30 30 31 31 32 31 31 31 32 32 32 33 34 35 37
4 5 6 6 7 8 10 10 11 11 12 13 13 14 15 16 17 18 19 20 21 22 23 23 24 24 26 27 28 29 29 29 29 29 29 28 29 30 31 31 31 33 33 33
4 5 6 6 7 8 9 10 10 11 12 13 13 13 14 15 16 18 19 20 21 21 21 22 23 24 24 25 26 26 27 27 27 27 26 26 26 27 28 28 29 30 30 31
5 5 6 6 7 8 9 10 10 11 12 13 14 13 13 14 15 16 18 19 19 20 20 21 21 22 22 22 22 23 23 24 24 24 24 24 24 25 26 26 27 27 27 28
6 7 7 8 8 9 10 11 12 12 13 14 14 13 14 14 15 16 17 18 18 18 19 19 19 19 19 20 20 20 20 21 22 22 22 23 23 23 24 24 25 25 25 25
8 8 9 9 10 10 10 11 12 13 14 14 14 14 15 16 15 16 16 16 17 17 17 17 17 18 18 19 19 19 18 19 21 22 22 21 21 21 22 22 22 23 23 23
10 10 10 10 11 11 11 12 13 14 14 14 14 14 15 16 16 15 16 16 16 17 17 17 17 17 17 18 18 18 18 18 19 19 19 19 20 20 21 21 21 22 22 23
11 12 11 11 12 12 12 12 13 13 13 14 14 14 15 16 16 16 16 16 16 16 16 16 16 16 16 16 16 16 16 16 16 16 17 18 19 19 20 21 22 23 24 24
13 13 13 12 13 13 13 13 13 13 14 14 15 15 15 15 16 16 16 15 15 15 15 15 15 16 16 16 15 15 15 16 16 17 17 19 20 21 22 22 23 23 24 26
15 15 15 15 15 15 14 14 14 15 15 15 15 15 15 15 15 15 15 15 15 15 15 15 15 15 16 16 16 16 16 17 17 18 20 21 22 23 23 24 24 25 26 27
17 17 18 17 17 16 16 16 16 16 16 16 16 16 17 16 15 15 15 15 15 15 15 15 16 16 16 16 17 18 19 19 20 20 21 22 23 24 24 24 25 26 27 28
20 20 20 20 20 19 18 18 19 18 17 17 18 18 18 18 17 16 16 16 16 16 16 16 17 17 18 18 19 20 21 21 21 22 23 23 23 25 26 26 27 28 29 30
22 22 22 22 22 21 21 21 21 20 20 19 19 19 19 18 18 18 18 18 17 17 18 18 19 19 20 21 21 22 23 23 24 24 24 25 26 27 28 28 29 29 30 31
23 23 23 24 23 22 22 23 23 22 22 21 20 20 20 19 20 20 20 20 20 20 20 21 22 22 23 23 24 25 25 26 26 27 27 28 29 29 30 30 30 31 32 32
24 24 25 25 24 23 24 24 25 25 24 23 22 21 21 21 22 22 23 23 23 23 23 24 24 25 25 26 26 27 28 28 28 29 30 30 31 31 32 32 32 32 33 33
25 25 26 26 25 26 26 25 26 26 25 24 24 24 24 24 24 25 25 25 25 26 26 26 26 27 28 28 28 28 29 30 31 31 32 33 33 33 34 34 34 35 35 35
26 27 28 28 28 28 26 27 26 26 26 25 26 26 26 27 27 27 27 27 27 27 27 28 28 29 29 30 30 31 32 32 33 34 34 34 35 35 36 36 37 37 37 38
26 28 29 29 29 29 27 27 27 27 27 27 27 27 27 28 27 28 28 28 29 29 29 30 30 30 31 31 32 33 33 34 35 36 36 36 36 37 37 38 38 39 39 39

GEFSCGP_500_meanwind_168.txt.gz
Wind_Speed
12 14 16 18 19 21 23 24 25 26 26 27 29 29 30 31 32 32 32 33 34 35 35 35 34 34 34 34 35 36 37 37 37 37 37 38 38 38 38 39 39 40 42 42
10 11 13 15 17 19 21 22 23 24 25 26 27 28 29 30 31 32 32 33 33 33 34 34 34 34 34 34 35 35 36 37 37 37 37 37 37 37 37 37 38 39 40 41
7 8 10 12 13 15 18 19 20 22 23 24 25 26 27 28 30 30 31 32 33 33 33 34 34 34 34 34 34 34 35 36 37 37 36 37 37 36 36 37 38 38 39 39
6 6 7 9 10 12 14 15 17 19 21 22 24 25 25 26 28 29 30 31 32 33 34 35 34 34 34 34 34 34 35 35 35 36 36 36 36 37 37 38 38 38 39 40
4 5 6 6 7 9 10 12 14 16 18 20 22 24 23 25 26 27 28 30 31 32 33 33 33 33 33 34 34 34 34 34 35 35 35 36 36 36 37 37 37 38 38 39
3 4 4 5 6 7 9 10 12 13 15 17 18 21 22 23 24 25 26 28 30 31 32 32 33 33 33 33 33 33 33 33 34 34 35 35 35 35 36 37 37 37 38 38
3 4 4 5 6 7 8 9 11 12 14 15 16 18 19 20 22 24 25 27 28 29 30 31 32 32 32 32 32 32 32 32 32 33 33 34 34 35 35 36 36 36 37 38
3 4 5 6 7 7 8 9 10 11 12 13 14 15 16 18 20 22 24 25 27 28 29 30 30 31 32 31 32 31 31 31 31 30 30 31 32 33 34 34 35 36 36 38
3 4 5 6 6 7 8 9 10 11 11 12 13 14 15 17 18 20 21 23 24 25 26 28 29 29 30 29 30 30 30 30 30 29 29 30 31 32 33 33 33 34 35 36
5 5 5 5 6 6 8 9 10 11 12 12 12 12 14 15 17 18 19 20 21 23 24 26 27 27 27 28 28 29 29 30 30 30 30 30 31 31 32 33 33 33 33 34
6 6 6 6 7 8 8 10 11 11 12 12 12 12 13 14 15 16 18 19 20 21 22 24 25 26 26 27 27 28 29 29 29 30 30 31 31 31 31 32 32 32 33 33
6 6 7 7 8 9 9 10 11 11 11 12 14 14 14 14 15 17 18 19 20 20 21 22 23 24 25 26 27 27 28 28 28 28 28 29 30 30 30 30 31 32 33 33
6 7 7 7 8 9 10 10 11 12 12 13 14 14 15 16 16 18 18 19 19 20 21 22 22 23 24 25 26 27 27 27 27 28 28 28 29 29 29 30 30 31 31 31
8 8 8 9 9 10 10 10 11 13 13 14 14 15 16 17 17 18 18 18 19 20 20 20 21 22 23 23 24 25 25 26 27 27 27 28 28 28 28 29 29 29 29 29
10 10 10 10 11 11 11 12 13 13 14 15 15 16 17 17 17 17 18 18 19 19 19 19 20 20 20 20 21 22 23 24 25 26 26 27 28 28 28 28 29 29 29 29
12 12 12 13 13 12 13 13 14 14 15 16 16 17 18 18 18 18 18 18 19 19 19 20 20 20 20 20 20 21 21 22 23 24 25 26 27 27 27 27 28 28 29 29
15 15 15 15 15 15 15 15 16 16 17 18 18 18 19 18 18 19 19 19 19 19 19 19 19 19 19 20 21 21 21 21 22 23 23 24 25 26 27 27 27 28 28 29
17 18 18 18 18 18 17 17 18 18 18 18 19 19 19 19 19 19 19 19 19 19 19 19 19 19 19 20 20 21 21 22 22 23 24 25 25 26 26 27 27 28 29 29
19 19 20 20 20 20 19 19 19 19 19 19 20 21 20 20 20 20 19 19 19 19 19 19 20 20 20 21 22 22 22 22 23 23 24 25 25 26 26 26 27 28 29 30
21 21 21 22 23 22 21 21 21 21 21 21 22 21 21 21 20 19 19 19 20 20 20 20 20 21 21 21 22 23 23 24 24 24 25 26 27 27 28 28 29 29 30 31
23 23 23 23 24 23 22 23 23 23 23 23 22 22 22 21 21 20 20 21 22 22 21 21 21 21 21 22 23 23 24 25 26 27 27 28 28 29 29 30 30 31 32 32
25 25 25 25 26 25 25 25 24 24 24 24 24 23 23 22 22 22 22 22 22 22 23 23 22 23 23 24 25 25 27 28 28 29 29 29 30 30 31 31 32 33 34 34
27 27 28 28 27 27 27 28 27 27 26 26 26 25 25 24 23 23 23 23 23 23 23 23 24 24 26 27 28 28 29 30 30 30 31 31 32 32 33 33 34 35 35 36
29 30 30 30 29 29 30 29 29 29 28 27 27 26 26 25 24 23 23 23 23 24 24 24 25 26 27 28 29 30 31 31 31 32 32 33 33 34 35 36 36 36 37 37
29 31 31 31 30 31 31 30 30 30 29 28 28 28 27 27 25 25 24 25 25 25 25 26 27 28 29 30 30 31 32 32 32 32 33 34 34 35 36 37 38 38 38 39
30 31 33 33 32 33 31 31 31 30 29 29 29 28 28 29 28 27 27 27 27 27 28 28 29 29 30 31 32 33 33 33 33 34 35 35 36 37 37 38 38 39 40 39